| time (UTC) | temp F | wind direction | speed knots | gust knots | rain 1hr in | rain 24hr in | rain mn in | humidity % | barometer mb |
| 20260507134702 | 50 | 0 | 1.7 | 5.2 | 0.00 | 0.00 | 0.00 | 95 | 1032.5 |
| 20260507133808 | 50 | 0 | 2.6 | 5.2 | 0.00 | 0.00 | 0.00 | 94 | 1032.5 |
| 20260507132914 | 50 | 0 | 2.6 | 3.5 | 0.00 | 0.00 | 0.00 | 95 | 1032.4 |
| 20260507132020 | 50 | 0 | 1.7 | 2.6 | 0.00 | 0.00 | 0.00 | 94 | 1032.2 |
| 20260507131126 | 50 | 0 | 0.9 | 1.7 | 0.00 | 0.00 | 0.00 | 94 | 1032.3 |
| 20260507130232 | 50 | 0 | 0.0 | 1.7 | 0.00 | 0.00 | 0.00 | 95 | 1032.4 |
| 20260507125337 | 50 | 0 | 0.0 | 2.6 | 0.00 | 0.00 | 0.00 | 96 | 1032.2 |
| 20260507124444 | 49 | 0 | 1.7 | 2.6 | 0.00 | 0.00 | 0.00 | 97 | 1032.0 |
| 20260507123550 | 49 | 0 | 0.9 | 1.7 | 0.00 | 0.00 | 0.00 | 97 | 1032.1 |
| 20260507122655 | 49 | 0 | 0.9 | 2.6 | 0.00 | 0.00 | 0.00 | 97 | 1032.1 |
| 20260507121801 | 49 | 0 | 0.9 | 3.5 | 0.00 | 0.00 | 0.00 | 98 | 1032.1 |
| 20260507120907 | 49 | 0 | 1.7 | 3.5 | 0.00 | 0.00 | 0.00 | 98 | 1032.1 |
| 20260507120014 | 49 | 0 | 0.9 | 1.7 | 0.00 | 0.00 | 0.00 | 99 | 1031.8 |
| 20260507115120 | 49 | 0 | 0.9 | 2.6 | 0.00 | 0.00 | 0.00 | 98 | 1031.5 |
| 20260507114225 | 49 | 0 | 0.9 | 2.6 | 0.00 | 0.00 | 0.00 | 99 | 1031.5 |
| 20260507113330 | 49 | 0 | 0.9 | 2.6 | 0.00 | 0.00 | 0.00 | 98 | 1031.4 |
| 20260507112437 | 49 | 0 | 0.9 | 2.6 | 0.00 | 0.00 | 0.00 | 98 | 1031.4 |
| 20260507111543 | 49 | 0 | 0.9 | 1.7 | 0.00 | 0.00 | 0.00 | 99 | 1031.4 |
| 20260507110649 | 49 | 0 | 0.0 | 2.6 | 0.00 | 0.00 | 0.00 | 99 | 1031.4 |
| 20260507105755 | 49 | 0 | 0.9 | 1.7 | 0.00 | 0.00 | 0.00 | 99 | 1031.3 |
| 20260507104900 | 49 | 0 | 0.9 | 1.7 | 0.00 | 0.00 | 0.00 | 99 | 1031.0 |
| 20260507104006 | 49 | 0 | 0.9 | 2.6 | 0.00 | 0.00 | 0.00 | 98 | 1030.9 |
| 20260507103113 | 49 | 0 | 0.9 | 2.6 | 0.00 | 0.00 | 0.00 | 99 | 1030.9 |
| 20260507102219 | 49 | 0 | 0.9 | 2.6 | 0.00 | 0.00 | 0.00 | 99 | 1030.7 |
| 20260507101324 | 49 | 0 | 0.9 | 2.6 | 0.00 | 0.00 | 0.00 | 99 | 1030.7 |
| 20260507100431 | 49 | 0 | 0.9 | 2.6 | 0.00 | 0.00 | 0.00 | 99 | 1030.7 |
| 20260507095537 | 49 | 0 | 0.9 | 2.6 | 0.00 | 0.00 | 0.00 | 99 | 1030.5 |
| 20260507094643 | 49 | 0 | 0.9 | 1.7 | 0.00 | 0.00 | 0.00 | 99 | 1030.4 |
| 20260507093749 | 48 | 0 | 0.0 | 2.6 | 0.00 | 0.00 | 0.00 | 99 | 1030.3 |
| 20260507092855 | 48 | 0 | 1.7 | 3.5 | 0.00 | 0.00 | 0.00 | 99 | 1030.3 |
| 20260507092001 | 49 | 0 | 0.9 | 3.5 | 0.00 | 0.00 | 0.00 | 99 | 1030.2 |
| 20260507091108 | 49 | 0 | 1.7 | 2.6 | 0.00 | 0.00 | 0.00 | 99 | 1030.0 |
| 20260507090214 | 48 | 0 | 1.7 | 3.5 | 0.00 | 0.00 | 0.00 | 98 | 1030.1 |
| 20260507085319 | 49 | 0 | 1.7 | 3.5 | 0.00 | 0.00 | 0.00 | 99 | 1030.1 |
| 20260507084424 | 48 | 0 | 1.7 | 3.5 | 0.00 | 0.00 | 0.00 | 99 | 1029.9 |
| 20260507083530 | 49 | 0 | 2.6 | 3.5 | 0.00 | 0.00 | 0.00 | 99 | 1029.9 |
| 20260507082636 | 49 | 0 | 1.7 | 3.5 | 0.00 | 0.00 | 0.00 | 99 | 1029.9 |
| 20260507081742 | 49 | 0 | 1.7 | 3.5 | 0.00 | 0.00 | 0.00 | 99 | 1029.8 |
| 20260507080848 | 49 | 0 | 0.9 | 2.6 | 0.00 | 0.00 | 0.00 | 99 | 1029.7 |
| 20260507075953 | 49 | 0 | 0.9 | 2.6 | 0.00 | 0.00 | 0.00 | 98 | 1029.7 |
| 20260507075100 | 49 | 0 | 0.9 | 2.6 | 0.00 | 0.00 | 0.00 | 99 | 1029.9 |
| 20260507074207 | 49 | 0 | 0.9 | 2.6 | 0.00 | 0.00 | 0.00 | 99 | 1029.8 |
| 20260507073313 | 49 | 0 | 0.9 | 1.7 | 0.00 | 0.00 | 0.00 | 98 | 1029.7 |
| 20260507072419 | 49 | 0 | 0.0 | 1.7 | 0.00 | 0.00 | 0.00 | 97 | 1029.5 |
| 20260507071525 | 49 | 0 | 0.9 | 2.6 | 0.00 | 0.00 | 0.00 | 97 | 1029.7 |
| 20260507070631 | 49 | 0 | 0.9 | 2.6 | 0.00 | 0.00 | 0.00 | 98 | 1029.7 |
| 20260507065737 | 49 | 0 | 1.7 | 2.6 | 0.00 | 0.00 | 0.00 | 98 | 1029.8 |
| 20260507064842 | 49 | 0 | 1.7 | 2.6 | 0.00 | 0.00 | 0.00 | 98 | 1029.9 |
| 20260507063948 | 49 | 0 | 1.7 | 3.5 | 0.00 | 0.00 | 0.00 | 99 | 1029.8 |
| 20260507063055 | 49 | 0 | 1.7 | 3.5 | 0.00 | 0.00 | 0.00 | 99 | 1029.7 |
| 20260507062201 | 49 | 0 | 1.7 | 4.3 | 0.00 | 0.00 | 0.00 | 99 | 1029.5 |
| 20260507061307 | 49 | 0 | 1.7 | 4.3 | 0.00 | 0.00 | 0.00 | 99 | 1029.6 |
| 20260507060414 | 49 | 0 | 1.7 | 5.2 | 0.00 | 0.00 | 0.00 | 99 | 1029.6 |
| 20260507055520 | 49 | 0 | 1.7 | 5.2 | 0.00 | 0.00 | 0.00 | 99 | 1029.7 |
| 20260507054628 | 49 | 0 | 1.7 | 5.2 | 0.00 | 0.00 | 0.00 | 99 | 1029.7 |
| 20260507053703 | 49 | 0 | 1.7 | 4.3 | 0.00 | 0.00 | 0.00 | 98 | 1029.6 |
| 20260507052808 | 49 | 0 | 1.7 | 4.3 | 0.00 | 0.00 | 0.00 | 97 | 1029.5 |
| 20260507051914 | 50 | 0 | 1.7 | 3.5 | 0.00 | 0.00 | 0.00 | 98 | 1029.3 |
| 20260507050943 | 50 | 0 | 1.7 | 2.6 | 0.00 | 0.00 | 0.00 | 99 | 1029.3 |
| 20260507050050 | 50 | 0 | 0.9 | 0.9 | 0.00 | 0.00 | 0.00 | 100 | 1029.3 |
| 20260507001852 | 52 | 0 | 0.9 | 3.5 | 0.00 | 0.00 | 0.00 | 100 | 1028.0 |
| 20260507000958 | 52 | 0 | 0.0 | 3.5 | 0.00 | 0.00 | 0.00 | 100 | 1028.0 |
| 20260506234258 | 52 | 0 | 2.6 | 6.1 | 0.00 | 0.00 | 0.00 | 99 | 1027.8 |
| 20260506233404 | 52 | 0 | 2.6 | 6.1 | 0.00 | 0.00 | 0.00 | 99 | 1027.7 |
| 20260506232509 | 52 | 0 | 2.6 | 6.1 | 0.00 | 0.00 | 0.00 | 98 | 1027.7 |
| 20260506231615 | 52 | 0 | 1.7 | 6.1 | 0.00 | 0.00 | 0.00 | 99 | 1027.6 |
| 20260506230721 | 52 | 0 | 2.6 | 4.3 | 0.00 | 0.00 | 0.00 | 99 | 1027.6 |
| 20260506225827 | 52 | 0 | 1.7 | 3.5 | 0.00 | 0.00 | 0.00 | 99 | 1027.5 |
| 20260506224933 | 52 | 0 | 0.0 | 7.0 | 0.00 | 0.00 | 0.00 | 100 | 1027.5 |
| 20260506224040 | 52 | 0 | 2.6 | 7.0 | 0.00 | 0.00 | 0.00 | 100 | 1027.4 |
| 20260506223145 | 52 | 0 | 2.6 | 8.7 | 0.00 | 0.00 | 0.00 | 100 | 1027.0 |
| 20260506222251 | 52 | 0 | 2.6 | 7.0 | 0.00 | 0.00 | 0.00 | 100 | 1027.0 |
| 20260506221357 | 52 | 0 | 2.6 | 7.0 | 0.00 | 0.00 | 0.00 | 100 | 1027.1 |
| 20260506220503 | 52 | 0 | 2.6 | 7.0 | 0.00 | 0.00 | 0.00 | 100 | 1026.9 |
| 20260506215609 | 53 | 0 | 2.6 | 10.4 | 0.00 | 0.00 | 0.00 | 100 | 1027.0 |
| 20260506214716 | 53 | 0 | 3.5 | 13.0 | 0.00 | 0.00 | 0.00 | 100 | 1026.8 |
| 20260506213822 | 53 | 0 | 6.1 | 13.0 | 0.00 | 0.00 | 0.00 | 100 | 1026.3 |
| 20260506212928 | 54 | 0 | 4.3 | 8.7 | 0.00 | 0.00 | 0.00 | 100 | 1026.2 |
| 20260506212034 | 54 | 0 | 1.7 | 4.3 | 0.00 | 0.00 | 0.00 | 100 | 1026.3 |
| 20260506211140 | 54 | 0 | 1.7 | 5.2 | 0.00 | 0.00 | 0.00 | 100 | 1026.1 |
| 20260506210247 | 54 | 0 | 2.6 | 5.2 | 0.00 | 0.00 | 0.00 | 100 | 1026.2 |
| 20260506205353 | 54 | 0 | 2.6 | 5.2 | 0.00 | 0.00 | 0.00 | 100 | 1025.8 |
| 20260506204458 | 54 | 0 | 1.7 | 5.2 | 0.00 | 0.00 | 0.00 | 100 | 1025.9 |
| 20260506203604 | 54 | 0 | 1.7 | 5.2 | 0.00 | 0.00 | 0.00 | 99 | 1025.8 |
| 20260506202711 | 55 | 0 | 0.9 | 5.2 | 0.00 | 0.00 | 0.00 | 98 | 1026.1 |
| 20260506201817 | 55 | 0 | 0.9 | 5.2 | 0.00 | 0.00 | 0.00 | 98 | 1025.8 |
| 20260506200923 | 55 | 0 | 1.7 | 6.1 | 0.00 | 0.00 | 0.00 | 97 | 1025.9 |
| 20260506200030 | 55 | 0 | 3.5 | 6.1 | 0.00 | 0.00 | 0.00 | 97 | 1025.9 |
| 20260506195135 | 56 | 0 | 1.7 | 6.1 | 0.00 | 0.00 | 0.00 | 91 | 1025.8 |
| 20260506194241 | 56 | 0 | 2.6 | 7.0 | 0.00 | 0.00 | 0.00 | 85 | 1025.5 |
| 20260506193348 | 56 | 0 | 3.5 | 6.1 | 0.00 | 0.00 | 0.00 | 86 | 1025.7 |
| 20260506192454 | 57 | 0 | 3.5 | 7.8 | 0.00 | 0.00 | 0.00 | 85 | 1025.8 |
| 20260506191601 | 57 | 0 | 2.6 | 7.8 | 0.00 | 0.00 | 0.00 | 84 | 1025.8 |
| 20260506190706 | 57 | 0 | 1.7 | 8.7 | 0.00 | 0.00 | 0.00 | 82 | 1025.9 |
| 20260506185813 | 57 | 0 | 3.5 | 7.8 | 0.00 | 0.00 | 0.00 | 81 | 1025.9 |
| 20260506184919 | 57 | 0 | 3.5 | 7.0 | 0.00 | 0.00 | 0.00 | 80 | 1025.7 |
| 20260506184025 | 57 | 0 | 3.5 | 6.1 | 0.00 | 0.00 | 0.00 | 81 | 1025.7 |
| 20260506183130 | 57 | 0 | 2.6 | 5.2 | 0.00 | 0.00 | 0.00 | 84 | 1025.9 |
| 20260506182236 | 57 | 0 | 2.6 | 5.2 | 0.00 | 0.00 | 0.00 | 84 | 1025.9 |
| 20260506181343 | 57 | 0 | 3.5 | 5.2 | 0.00 | 0.00 | 0.00 | 84 | 1025.8 |
| 20260506180449 | 56 | 0 | 1.7 | 5.2 | 0.00 | 0.00 | 0.00 | 84 | 1026.0 |
| 20260506175555 | 56 | 0 | 2.6 | 5.2 | 0.00 | 0.00 | 0.00 | 83 | 1026.0 |
| 20260506174701 | 57 | 0 | 2.6 | 7.0 | 0.00 | 0.00 | 0.00 | 82 | 1026.1 |
| 20260506173808 | 57 | 0 | 3.5 | 7.0 | 0.00 | 0.00 | 0.00 | 78 | 1025.6 |
| 20260506172914 | 57 | 0 | 3.5 | 6.1 | 0.00 | 0.00 | 0.00 | 78 | 1025.8 |
| 20260506172020 | 57 | 0 | 4.3 | 7.8 | 0.00 | 0.00 | 0.00 | 78 | 1025.8 |
| 20260506171125 | 57 | 0 | 4.3 | 7.8 | 0.00 | 0.00 | 0.00 | 76 | 1025.8 |
| 20260506170232 | 59 | 0 | 2.6 | 9.6 | 0.00 | 0.00 | 0.00 | 69 | 1025.7 |
| 20260506165338 | 58 | 0 | 5.2 | 9.6 | 0.00 | 0.00 | 0.00 | 69 | 1025.8 |
| 20260506164445 | 59 | 0 | 3.5 | 11.3 | 0.00 | 0.00 | 0.00 | 67 | 1025.3 |
| 20260506163551 | 60 | 0 | 6.1 | 11.3 | 0.00 | 0.00 | 0.00 | 62 | 1025.2 |
| 20260506162657 | 61 | 0 | 4.3 | 9.6 | 0.00 | 0.00 | 0.00 | 57 | 1024.8 |
| 20260506161803 | 62 | 0 | 4.3 | 8.7 | 0.00 | 0.00 | 0.00 | 55 | 1024.4 |
| 20260506160910 | 62 | 0 | 1.7 | 6.1 | 0.00 | 0.00 | 0.00 | 52 | 1024.3 |
| 20260506160016 | 62 | 0 | 2.6 | 7.8 | 0.00 | 0.00 | 0.00 | 51 | 1024.3 |
| 20260506155122 | 63 | 0 | 3.5 | 7.8 | 0.00 | 0.00 | 0.00 | 51 | 1024.1 |
| 20260506154227 | 63 | 0 | 5.2 | 8.7 | 0.00 | 0.00 | 0.00 | 51 | 1024.0 |
| 20260506153333 | 64 | 0 | 5.2 | 8.7 | 0.00 | 0.00 | 0.00 | 49 | 1024.1 |
| 20260506152438 | 62 | 0 | 4.3 | 8.7 | 0.00 | 0.00 | 0.00 | 52 | 1024.3 |
| 20260506151543 | 62 | 0 | 4.3 | 10.4 | 0.00 | 0.00 | 0.00 | 53 | 1024.4 |
| 20260506150649 | 62 | 0 | 2.6 | 10.4 | 0.00 | 0.00 | 0.00 | 48 | 1024.0 |
| 20260506145755 | 62 | 0 | 2.6 | 5.2 | 0.00 | 0.00 | 0.00 | 55 | 1024.0 |
| 20260506144902 | 62 | 0 | 1.7 | 3.5 | 0.00 | 0.00 | 0.00 | 55 | 1024.0 |
| 20260506144008 | 61 | 0 | 1.7 | 5.2 | 0.00 | 0.00 | 0.00 | 58 | 1023.9 |
| 20260506143114 | 60 | 0 | 3.5 | 7.8 | 0.00 | 0.00 | 0.00 | 60 | 1023.8 |
| 20260506142220 | 60 | 0 | 3.5 | 8.7 | 0.00 | 0.00 | 0.00 | 59 | 1023.7 |
| 20260506141326 | 60 | 0 | 4.3 | 8.7 | 0.00 | 0.00 | 0.00 | 57 | 1023.6 |
| 20260506140431 | 59 | 0 | 1.7 | 6.1 | 0.00 | 0.00 | 0.00 | 56 | 1023.8 |
| 20260506135537 | 59 | 0 | 3.5 | 7.0 | 0.00 | 0.00 | 0.00 | 57 | 1023.8 |